Weather History for CYMA - December, 2013

Change the Weather History Date:

Saturday, December 28, 2013

  Actual Average Record
Temperature  
Mean Temperature -32 °F -  
Max Temperature -14 °F -7 °F 30 °F (2001)
Min Temperature -49 °F -26 °F -50 °F (1996)
Degree Days  
Heating Degree Days 96    
Moisture  
Dew Point -34 °F    
Average Humidity 65    
Maximum Humidity 74    
Minimum Humidity 47    
Precipitation  
Precipitation 0.00 in 0.03 in - ()
Sea Level Pressure  
Sea Level Pressure 30.63 in    
Wind  
Wind Speed 4 mph ()    
Max Wind Speed 10 mph    
Max Gust Speed -    
Visibility 19.2 miles    
Events Fog , Snow    
Averages and records for this station are not official NWS values.
T = Trace of Precipitation, MM = Missing Value Source: Averaged Metar Reports

Daily Weather History Graph

Daily Weather History Graph

Search for Another Location

Airport or City:

Trip Planner

Search our weather history database for the weather conditions in past years. The results will help you decide how hot, cold, wet, or windy it might be!

Date:

Astronomy

Dec. 28, 2013 Rise Set
Actual Time 10:49 AM PST 3:21 PM PST
Civil Twilight 9:35 AM PST 4:35 PM PST
Nautical Twilight 8:28 AM PST 5:41 PM PST
Astronomical Twilight 7:30 AM PST 6:40 PM PST
Moon 5:35 AM PST (12/28) 1:12 PM PST (12/28)
Length of Visible Light 6h 59m
Length of Day
4h 31m
Waning Crescent, 18% of the Moon is Illuminated
Dec 28
Waning Crescent
Jan 1
New
Jan 7
First Quarter
Jan 15
Full
Jan 23
Last Quarter

Hourly Weather History & Observations

Time (PST) Temp. Windchill Dew Point Humidity Pressure Visibility Wind Dir Wind Speed Gust Speed Precip Events Conditions
12:00 AM -45.4 °F - -52.6 °F 66% 30.80 in 20.0 mi Variable 2.3 mph - N/A Fog Ice Crystals
1:00 AM -41.8 °F - -49.0 °F 67% 30.82 in 20.0 mi Variable 2.3 mph - N/A Fog Ice Crystals
2:00 AM -41.8 °F -58.7 °F -49.0 °F 67% 30.81 in 20.0 mi NNE 4.6 mph - N/A Fog Ice Crystals
3:00 AM -41.8 °F - -49.0 °F 67% 30.81 in 20.0 mi Calm Calm - N/A   Clear
4:00 AM -41 °F - -48 °F 47% 30.82 in 19 mi North 1.2 mph - -  
4:00 AM -41.8 °F - -49.0 °F 67% 30.82 in 20.0 mi Calm Calm - N/A   Ice Crystals
5:00 AM -41.8 °F - -49.0 °F 67% 30.81 in 20.0 mi Calm Calm - N/A   Ice Crystals
6:00 AM -40.0 °F - -47.2 °F 67% 30.80 in 20.0 mi Calm Calm - N/A   Scattered Clouds
7:00 AM -38.2 °F -56.9 °F -45.4 °F 67% 30.77 in 20.0 mi NE 5.8 mph - N/A   Clear
8:00 AM -38.2 °F -51.5 °F -43.6 °F 74% 30.78 in 20.0 mi Variable 3.5 mph - N/A   Clear
9:00 AM -31.0 °F -43.3 °F -38.2 °F 68% 30.74 in 20.0 mi NNE 3.5 mph - N/A   Partly Cloudy
10:00 AM -29 °F - -36 °F 52% 30.72 in 19 mi ENE 2.3 mph - -  
10:00 AM -29.2 °F -41.2 °F -36.4 °F 68% 30.71 in 20.0 mi NE 3.5 mph - N/A   Mostly Cloudy
11:00 AM -25.6 °F - -32.8 °F 69% 30.71 in 20.0 mi Variable 2.3 mph - N/A   Overcast
12:00 PM -23.8 °F -39.8 °F -31.0 °F 69% 30.69 in 20.0 mi North 5.8 mph - N/A   Overcast
1:00 PM -22.0 °F -41.0 °F -29.2 °F 69% 30.64 in 20.0 mi North 8.1 mph - N/A   Overcast
2:00 PM -20.2 °F - -27.4 °F 69% 30.62 in 20.0 mi Variable 2.3 mph - N/A   Overcast
3:00 PM -18.4 °F -37.9 °F -27.4 °F 63% 30.58 in 20.0 mi North 9.2 mph - N/A   Overcast
4:00 PM -18 °F - -26 °F 50% 30.55 in 19 mi NNE 6.9 mph - -   Overcast
4:00 PM -18.4 °F -36.6 °F -25.6 °F 70% 30.54 in 20.0 mi NNE 8.1 mph - N/A   Overcast
5:00 PM -18.4 °F -36.6 °F -25.6 °F 70% 30.52 in 20.0 mi North 8.1 mph - N/A   Overcast
6:00 PM -16.6 °F -35.7 °F -25.6 °F 64% 30.50 in 20.0 mi North 9.2 mph - N/A Snow Light Snow
7:00 PM -16.6 °F -32.9 °F -23.8 °F 70% 30.46 in 20.0 mi North 6.9 mph - N/A Snow Light Snow
8:00 PM -16.6 °F -36.8 °F -25.6 °F 64% 30.43 in 20.0 mi North 10.4 mph - N/A Snow Light Snow
8:11 PM -16.6 °F -35.7 °F -23.8 °F 70% 30.42 in 20.0 mi North 9.2 mph - N/A   Overcast
9:00 PM -16.6 °F -36.8 °F -23.8 °F 70% 30.40 in 20.0 mi North 10.4 mph - N/A   Overcast
10:00 PM -15 °F - -23 °F 54% 30.39 in 19 mi North 5.8 mph - -   Overcast
10:00 PM -14.8 °F -29.1 °F -22.0 °F 70% 30.39 in 20.0 mi North 5.8 mph - N/A   Overcast
10:36 PM -14.8 °F -30.8 °F -23.8 °F 64% 30.39 in 10.0 mi North 6.9 mph - N/A Snow Light Snow
11:00 PM -14.8 °F -30.8 °F -23.8 °F 64% 30.38 in 10.0 mi North 6.9 mph - N/A Snow Light Snow